Location: Glen Avon
(34.0117°N, 117.4848°W)
Time: 14:33:14
(UTC+00:00)

Lacrosse 5 rocket - Pass Details

Date: 01 August 2021
Orbit: 464 x 629 km, 57.0° (Epoch: 17 September)

Event Time Altitude Azimuth Distance (km) Brightness Sun altitude
Rises 12:26:31 0° 182° (S) 2,872 4.7 -7.4°
Reaches altitude 10° 12:29:24 10° 164° (SSE) 1,952 4.0 -6.9°
Maximum altitude 12:32:28 19° 120° (ESE) 1,456 3.9 -6.3°
Drops below altitude 10° 12:35:29 10° 76° (ENE) 1,902 5.7 -5.8°
Sets 12:38:14 0° 58° (ENE) 2,772 7.5 -5.3°
